| time (UTC) | temp C | wind direction | speed KPH | gust KPH | rain 1hr cm | rain 24hr cm | rain mn cm | humidity % | barometer mb |
| 20260504012033 | 13 | 0 | 0.0 | 0.0 | 0.00 | 0.00 | 0.00 | 40 | 1002.7 |
| 20260504011546 | 14 | 0 | 0.0 | 0.0 | 0.00 | 0.00 | 0.00 | 40 | 1002.7 |
| 20260504011032 | 14 | 0 | 0.0 | 0.0 | 0.00 | 0.00 | 0.00 | 40 | 1002.8 |
| 20260504010535 | 15 | 0 | 0.0 | 0.0 | 0.00 | 0.00 | 0.00 | 40 | 1002.8 |
| 20260504010048 | 15 | 0 | 0.0 | 0.0 | 0.00 | 0.00 | 0.00 | 38 | 1002.7 |
| 20260504005532 | 15 | 0 | 0.0 | 1.6 | 0.00 | 0.00 | 0.00 | 38 | 1002.7 |
| 20260504005032 | 16 | 0 | 0.0 | 1.6 | 0.00 | 0.00 | 0.00 | 38 | 1002.8 |
| 20260504004610 | 16 | 15 | 0.0 | 1.6 | 0.00 | 0.00 | 0.00 | 36 | 1002.8 |
| 20260504004032 | 16 | 0 | 0.0 | 1.6 | 0.00 | 0.00 | 0.00 | 35 | 1002.8 |
| 20260504003532 | 16 | 15 | 0.0 | 1.6 | 0.00 | 0.00 | 0.00 | 34 | 1002.9 |
| 20260504003053 | 16 | 0 | 0.0 | 1.6 | 0.00 | 0.00 | 0.00 | 34 | 1002.9 |
| 20260504002532 | 16 | 0 | 0.0 | 1.6 | 0.00 | 0.00 | 0.00 | 34 | 1002.9 |
| 20260504002032 | 17 | 39 | 0.0 | 3.2 | 0.00 | 0.00 | 0.00 | 34 | 1002.8 |
| 20260504001617 | 17 | 33 | 0.0 | 4.8 | 0.00 | 0.00 | 0.00 | 31 | 1002.9 |
| 20260504001033 | 17 | 42 | 1.6 | 4.8 | 0.00 | 0.00 | 0.00 | 30 | 1003.0 |
| 20260504000531 | 17 | 43 | 0.0 | 3.2 | 0.00 | 0.00 | 0.00 | 29 | 1003.1 |
| 20260504000046 | 17 | 0 | 0.0 | 3.2 | 0.00 | 0.00 | 0.00 | 31 | 1003.0 |
| 20260503235531 | 17 | 14 | 1.6 | 3.2 | 0.00 | 0.00 | 0.00 | 30 | 1003.0 |
| 20260503235031 | 17 | 341 | 0.0 | 6.4 | 0.00 | 0.00 | 0.00 | 29 | 1002.9 |
| 20260503234544 | 18 | 15 | 1.6 | 6.4 | 0.00 | 0.00 | 0.00 | 29 | 1002.9 |
| 20260503234031 | 18 | 352 | 1.6 | 6.4 | 0.00 | 0.00 | 0.00 | 28 | 1002.9 |
| 20260503233530 | 18 | 18 | 1.6 | 4.8 | 0.00 | 0.00 | 0.00 | 29 | 1002.8 |
| 20260503233043 | 18 | 0 | 1.6 | 4.8 | 0.00 | 0.00 | 0.00 | 27 | 1002.9 |
| 20260503232530 | 18 | 344 | 1.6 | 4.8 | 0.00 | 0.00 | 0.00 | 26 | 1002.9 |
| 20260503232030 | 18 | 0 | 1.6 | 4.8 | 0.00 | 0.00 | 0.00 | 27 | 1002.9 |
| 20260503231546 | 18 | 40 | 0.0 | 6.4 | 0.00 | 0.00 | 0.00 | 28 | 1003.1 |
| 20260503231030 | 18 | 347 | 1.6 | 6.4 | 0.00 | 0.00 | 0.00 | 26 | 1003.1 |
| 20260503230534 | 18 | 339 | 3.2 | 6.4 | 0.00 | 0.00 | 0.00 | 27 | 1003.1 |
| 20260503230104 | 18 | 336 | 3.2 | 6.4 | 0.00 | 0.00 | 0.00 | 26 | 1003.0 |
| 20260503225532 | 18 | 103 | 0.0 | 6.4 | 0.00 | 0.00 | 0.00 | 27 | 1003.1 |
| 20260503225035 | 18 | 59 | 1.6 | 6.4 | 0.00 | 0.00 | 0.00 | 26 | 1003.1 |
| 20260503224545 | 18 | 351 | 3.2 | 6.4 | 0.00 | 0.00 | 0.00 | 25 | 1003.1 |
| 20260503224034 | 18 | 43 | 3.2 | 6.4 | 0.00 | 0.00 | 0.00 | 25 | 1003.1 |
| 20260503223533 | 18 | 4 | 3.2 | 8.0 | 0.00 | 0.00 | 0.00 | 24 | 1003.1 |
| 20260503223044 | 19 | 11 | 3.2 | 8.0 | 0.00 | 0.00 | 0.00 | 24 | 1003.2 |
| 20260503222530 | 19 | 13 | 3.2 | 6.4 | 0.00 | 0.00 | 0.00 | 24 | 1003.2 |
| 20260503222030 | 19 | 26 | 1.6 | 8.0 | 0.00 | 0.00 | 0.00 | 24 | 1003.2 |
| 20260503221541 | 19 | 41 | 1.6 | 8.0 | 0.00 | 0.00 | 0.00 | 26 | 1003.2 |
| 20260503221030 | 20 | 330 | 3.2 | 8.0 | 0.00 | 0.00 | 0.00 | 22 | 1003.2 |
| 20260503220531 | 20 | 335 | 3.2 | 8.0 | 0.00 | 0.00 | 0.00 | 25 | 1003.2 |
| 20260503220049 | 20 | 102 | 3.2 | 8.0 | 0.00 | 0.00 | 0.00 | 23 | 1003.2 |
| 20260503215530 | 20 | 32 | 3.2 | 8.0 | 0.00 | 0.00 | 0.00 | 26 | 1003.2 |
| 20260503215031 | 20 | 2 | 1.6 | 11.3 | 0.00 | 0.00 | 0.00 | 24 | 1003.3 |
| 20260503214544 | 19 | 352 | 6.4 | 11.3 | 0.00 | 0.00 | 0.00 | 22 | 1003.3 |
| 20260503214032 | 20 | 14 | 4.8 | 11.3 | 0.00 | 0.00 | 0.00 | 22 | 1003.3 |
| 20260503213533 | 20 | 331 | 4.8 | 9.7 | 0.00 | 0.00 | 0.00 | 23 | 1003.3 |
| 20260503213045 | 20 | 12 | 3.2 | 8.0 | 0.00 | 0.00 | 0.00 | 23 | 1003.3 |
| 20260503212533 | 20 | 38 | 3.2 | 8.0 | 0.00 | 0.00 | 0.00 | 23 | 1003.4 |
| 20260503212031 | 20 | 34 | 3.2 | 9.7 | 0.00 | 0.00 | 0.00 | 24 | 1003.2 |
| 20260503211547 | 20 | 27 | 3.2 | 9.7 | 0.00 | 0.00 | 0.00 | 25 | 1003.4 |
| 20260503211032 | 20 | 358 | 4.8 | 9.7 | 0.00 | 0.00 | 0.00 | 23 | 1003.3 |
| 20260503210530 | 20 | 343 | 3.2 | 8.0 | 0.00 | 0.00 | 0.00 | 24 | 1003.2 |
| 20260503210043 | 20 | 347 | 4.8 | 11.3 | 0.00 | 0.00 | 0.00 | 23 | 1003.4 |
| 20260503205531 | 20 | 40 | 3.2 | 11.3 | 0.00 | 0.00 | 0.00 | 23 | 1003.4 |
| 20260503205031 | 20 | 344 | 6.4 | 11.3 | 0.00 | 0.00 | 0.00 | 23 | 1003.4 |
| 20260503204543 | 20 | 333 | 3.2 | 8.0 | 0.00 | 0.00 | 0.00 | 26 | 1003.4 |
| 20260503204031 | 20 | 20 | 4.8 | 12.9 | 0.00 | 0.00 | 0.00 | 25 | 1003.4 |
| 20260503203530 | 20 | 342 | 3.2 | 12.9 | 0.00 | 0.00 | 0.00 | 26 | 1003.5 |
| 20260503203101 | 20 | 342 | 6.4 | 12.9 | 0.00 | 0.00 | 0.00 | 24 | 1003.5 |
| 20260503202530 | 20 | 338 | 3.2 | 8.0 | 0.00 | 0.00 | 0.00 | 26 | 1003.4 |
| 20260503202030 | 20 | 257 | 1.6 | 8.0 | 0.00 | 0.00 | 0.00 | 27 | 1003.5 |
| 20260503201545 | 20 | 349 | 4.8 | 8.0 | 0.00 | 0.00 | 0.00 | 27 | 1003.5 |
| 20260503201032 | 21 | 28 | 1.6 | 8.0 | 0.00 | 0.00 | 0.00 | 27 | 1003.5 |
| 20260503200533 | 20 | 38 | 1.6 | 9.7 | 0.00 | 0.00 | 0.00 | 31 | 1003.5 |
| 20260503200046 | 20 | 52 | 4.8 | 9.7 | 0.00 | 0.00 | 0.00 | 24 | 1003.5 |
| 20260503195533 | 20 | 11 | 1.6 | 11.3 | 0.00 | 0.00 | 0.00 | 28 | 1003.5 |
| 20260503195032 | 20 | 60 | 3.2 | 11.3 | 0.00 | 0.00 | 0.00 | 29 | 1003.7 |
| 20260503194546 | 20 | 34 | 1.6 | 9.7 | 0.00 | 0.00 | 0.00 | 28 | 1003.7 |
| 20260503194031 | 20 | 52 | 4.8 | 8.0 | 0.00 | 0.00 | 0.00 | 30 | 1003.8 |
| 20260503193533 | 20 | 53 | 3.2 | 9.7 | 0.00 | 0.00 | 0.00 | 30 | 1003.9 |
| 20260503193043 | 20 | 29 | 3.2 | 11.3 | 0.00 | 0.00 | 0.00 | 30 | 1003.9 |
| 20260503192531 | 20 | 334 | 6.4 | 11.3 | 0.00 | 0.00 | 0.00 | 31 | 1003.9 |
| 20260503192030 | 20 | 341 | 3.2 | 11.3 | 0.00 | 0.00 | 0.00 | 34 | 1003.8 |
| 20260503191547 | 20 | 331 | 4.8 | 9.7 | 0.00 | 0.00 | 0.00 | 36 | 1003.8 |
| 20260503191030 | 20 | 319 | 4.8 | 9.7 | 0.00 | 0.00 | 0.00 | 34 | 1003.8 |
| 20260503190533 | 20 | 74 | 3.2 | 9.7 | 0.00 | 0.00 | 0.00 | 36 | 1003.7 |
| 20260503190056 | 20 | 331 | 4.8 | 9.7 | 0.00 | 0.00 | 0.00 | 32 | 1003.7 |
| 20260503185533 | 20 | 327 | 6.4 | 9.7 | 0.00 | 0.00 | 0.00 | 32 | 1003.8 |
| 20260503185034 | 20 | 336 | 1.6 | 11.3 | 0.00 | 0.00 | 0.00 | 35 | 1003.8 |
| 20260503184542 | 20 | 15 | 4.8 | 11.3 | 0.00 | 0.00 | 0.00 | 38 | 1003.9 |
| 20260503184030 | 20 | 8 | 4.8 | 11.3 | 0.00 | 0.00 | 0.00 | 39 | 1003.8 |
| 20260503183532 | 20 | 343 | 4.8 | 11.3 | 0.00 | 0.00 | 0.00 | 37 | 1003.9 |
| 20260503183045 | 20 | 337 | 3.2 | 11.3 | 0.00 | 0.00 | 0.00 | 39 | 1003.8 |
| 20260503182532 | 20 | 53 | 3.2 | 11.3 | 0.00 | 0.00 | 0.00 | 39 | 1003.8 |
| 20260503182030 | 20 | 342 | 1.6 | 11.3 | 0.00 | 0.00 | 0.00 | 38 | 1003.9 |
| 20260503181554 | 20 | 344 | 3.2 | 8.0 | 0.00 | 0.00 | 0.00 | 40 | 1004.0 |
| 20260503181034 | 20 | 356 | 1.6 | 8.0 | 0.00 | 0.00 | 0.00 | 37 | 1004.0 |
| 20260503180531 | 20 | 340 | 3.2 | 6.4 | 0.00 | 0.00 | 0.00 | 39 | 1004.1 |
| 20260503180052 | 20 | 22 | 1.6 | 9.7 | 0.00 | 0.00 | 0.00 | 40 | 1004.1 |
| 20260503175530 | 20 | 345 | 3.2 | 12.9 | 0.00 | 0.00 | 0.00 | 39 | 1004.1 |
| 20260503175030 | 20 | 17 | 3.2 | 12.9 | 0.00 | 0.00 | 0.00 | 38 | 1004.2 |
| 20260503174553 | 20 | 56 | 3.2 | 11.3 | 0.00 | 0.00 | 0.00 | 39 | 1004.4 |
| 20260503174034 | 20 | 318 | 4.8 | 11.3 | 0.00 | 0.00 | 0.00 | 40 | 1004.4 |
| 20260503173530 | 20 | 356 | 3.2 | 9.7 | 0.00 | 0.00 | 0.00 | 42 | 1004.4 |
| 20260503173100 | 19 | 15 | 3.2 | 9.7 | 0.00 | 0.00 | 0.00 | 38 | 1004.4 |
| 20260503172531 | 19 | 331 | 3.2 | 9.7 | 0.00 | 0.00 | 0.00 | 38 | 1004.5 |
| 20260503172033 | 19 | 349 | 3.2 | 9.7 | 0.00 | 0.00 | 0.00 | 42 | 1004.6 |
| 20260503171545 | 19 | 3 | 4.8 | 9.7 | 0.00 | 0.00 | 0.00 | 39 | 1004.5 |
| 20260503171035 | 19 | 337 | 3.2 | 8.0 | 0.00 | 0.00 | 0.00 | 46 | 1004.5 |
| 20260503170533 | 19 | 6 | 3.2 | 8.0 | 0.00 | 0.00 | 0.00 | 40 | 1004.4 |
| 20260503150530 | 17 | 347 | 1.6 | 4.8 | 0.00 | 0.00 | 0.00 | 46 | 1004.5 |
| 20260503131030 | 13 | 248 | 0.0 | 6.4 | 0.00 | 0.00 | 0.00 | 60 | 1004.2 |
| 20260503130531 | 12 | 200 | 4.8 | 6.4 | 0.00 | 0.00 | 0.00 | 59 | 1004.0 |
| 20260503110533 | 7 | 224 | 0.0 | 1.6 | 0.00 | 0.00 | 0.00 | 72 | 1004.0 |
| 20260503081555 | 10 | 223 | 6.4 | 11.3 | 0.00 | 0.00 | 0.00 | 63 | 1004.7 |
| 20260503081033 | 10 | 188 | 6.4 | 12.9 | 0.00 | 0.00 | 0.00 | 62 | 1004.7 |
| 20260503080530 | 10 | 161 | 4.8 | 12.9 | 0.00 | 0.00 | 0.00 | 62 | 1004.8 |
| 20260503072530 | 11 | 185 | 4.8 | 12.9 | 0.00 | 0.00 | 0.00 | 59 | 1005.5 |
| 20260503072031 | 11 | 153 | 4.8 | 12.9 | 0.00 | 0.00 | 0.00 | 59 | 1005.6 |
| 20260503071547 | 11 | 162 | 6.4 | 12.9 | 0.00 | 0.00 | 0.00 | 58 | 1005.7 |
| 20260503071029 | 11 | 204 | 6.4 | 9.7 | 0.00 | 0.00 | 0.00 | 59 | 1005.8 |
| 20260503070532 | 11 | 174 | 3.2 | 9.7 | 0.00 | 0.00 | 0.00 | 59 | 1005.8 |
| 20260503060110 | 11 | 193 | 4.8 | 8.0 | 0.00 | 0.00 | 0.00 | 58 | 1006.7 |
| 20260503055033 | 12 | 174 | 3.2 | 6.4 | 0.00 | 0.00 | 0.00 | 59 | 1006.8 |
| 20260503054600 | 12 | 210 | 3.2 | 8.0 | 0.00 | 0.00 | 0.00 | 58 | 1006.9 |
| 20260503054033 | 12 | 181 | 3.2 | 9.7 | 0.00 | 0.00 | 0.00 | 58 | 1006.9 |
| 20260503053532 | 12 | 199 | 4.8 | 9.7 | 0.00 | 0.00 | 0.00 | 58 | 1006.9 |
| 20260503053044 | 12 | 171 | 4.8 | 9.7 | 0.00 | 0.00 | 0.00 | 56 | 1007.0 |
| 20260503052534 | 12 | 190 | 4.8 | 9.7 | 0.00 | 0.00 | 0.00 | 57 | 1007.0 |
| 20260503052034 | 12 | 216 | 4.8 | 8.0 | 0.00 | 0.00 | 0.00 | 57 | 1007.0 |
| 20260503051545 | 12 | 183 | 3.2 | 8.0 | 0.00 | 0.00 | 0.00 | 56 | 1007.1 |
| 20260503051030 | 12 | 224 | 4.8 | 8.0 | 0.00 | 0.00 | 0.00 | 57 | 1007.3 |
| 20260503050530 | 12 | 226 | 3.2 | 9.7 | 0.00 | 0.00 | 0.00 | 56 | 1007.3 |
| 20260503050049 | 12 | 193 | 4.8 | 9.7 | 0.00 | 0.00 | 0.00 | 57 | 1007.4 |
| 20260503045532 | 12 | 130 | 4.8 | 9.7 | 0.00 | 0.00 | 0.00 | 57 | 1007.3 |
| 20260503045032 | 12 | 193 | 4.8 | 9.7 | 0.00 | 0.00 | 0.00 | 58 | 1007.4 |
| 20260503044550 | 11 | 186 | 4.8 | 9.7 | 0.00 | 0.00 | 0.00 | 61 | 1007.4 |
| 20260503044029 | 12 | 184 | 3.2 | 9.7 | 0.00 | 0.00 | 0.00 | 61 | 1007.6 |
| 20260503043533 | 12 | 145 | 1.6 | 4.8 | 0.00 | 0.00 | 0.00 | 64 | 1007.6 |
| 20260503043048 | 12 | 0 | 0.0 | 0.0 | 0.00 | 0.00 | 0.00 | 59 | 1007.8 |
| 20260503042536 | 12 | 0 | 0.0 | 0.0 | 0.00 | 0.00 | 0.00 | 58 | 1007.8 |
| 20260503042034 | 12 | 0 | 0.0 | 0.0 | 0.00 | 0.00 | 0.00 | 57 | 1007.8 |
| 20260503041547 | 12 | 0 | 0.0 | 0.0 | 0.00 | 0.00 | 0.00 | 57 | 1007.9 |
| 20260503041036 | 12 | 0 | 0.0 | 4.8 | 0.00 | 0.00 | 0.00 | 57 | 1007.9 |
| 20260503040532 | 12 | 0 | 1.6 | 4.8 | 0.00 | 0.00 | 0.00 | 59 | 1008.0 |
| 20260503040048 | 12 | 204 | 3.2 | 4.8 | 0.00 | 0.00 | 0.00 | 58 | 1007.9 |
| 20260503035532 | 12 | 165 | 1.6 | 3.2 | 0.00 | 0.00 | 0.00 | 58 | 1008.1 |
| 20260503035032 | 12 | 0 | 0.0 | 1.6 | 0.00 | 0.00 | 0.00 | 56 | 1008.3 |
| 20260503034543 | 12 | 0 | 0.0 | 1.6 | 0.00 | 0.00 | 0.00 | 55 | 1008.2 |
| 20260503034032 | 12 | 0 | 0.0 | 1.6 | 0.00 | 0.00 | 0.00 | 55 | 1008.3 |
| 20260503033535 | 12 | 0 | 0.0 | 1.6 | 0.00 | 0.00 | 0.00 | 55 | 1008.3 |
| 20260503033044 | 12 | 0 | 0.0 | 3.2 | 0.00 | 0.00 | 0.00 | 54 | 1008.5 |
| 20260503032532 | 12 | 0 | 0.0 | 3.2 | 0.00 | 0.00 | 0.00 | 55 | 1008.5 |
| 20260503032030 | 12 | 0 | 0.0 | 3.2 | 0.00 | 0.00 | 0.00 | 54 | 1008.5 |
| 20260503031549 | 12 | 264 | 0.0 | 3.2 | 0.00 | 0.00 | 0.00 | 55 | 1008.6 |
| 20260503031030 | 12 | 0 | 0.0 | 3.2 | 0.00 | 0.00 | 0.00 | 54 | 1008.7 |
| 20260503030534 | 12 | 237 | 0.0 | 3.2 | 0.00 | 0.00 | 0.00 | 55 | 1008.7 |
| 20260503030048 | 12 | 248 | 0.0 | 3.2 | 0.00 | 0.00 | 0.00 | 54 | 1008.7 |
| 20260503025532 | 12 | 0 | 0.0 | 1.6 | 0.00 | 0.00 | 0.00 | 55 | 1008.8 |
| 20260503025034 | 12 | 0 | 0.0 | 1.6 | 0.00 | 0.00 | 0.00 | 56 | 1008.8 |
| 20260503024547 | 12 | 220 | 0.0 | 4.8 | 0.00 | 0.00 | 0.00 | 56 | 1008.9 |
| 20260503024033 | 13 | 270 | 0.0 | 4.8 | 0.00 | 0.00 | 0.00 | 55 | 1008.8 |
| 20260503023533 | 13 | 270 | 1.6 | 4.8 | 0.00 | 0.00 | 0.00 | 55 | 1008.8 |
| 20260503023042 | 13 | 217 | 0.0 | 4.8 | 0.00 | 0.00 | 0.00 | 55 | 1008.8 |
| 20260503022532 | 13 | 217 | 0.0 | 4.8 | 0.00 | 0.00 | 0.00 | 54 | 1008.9 |
| 20260503022032 | 13 | 0 | 0.0 | 1.6 | 0.00 | 0.00 | 0.00 | 54 | 1009.0 |
| 20260503021543 | 13 | 0 | 0.0 | 1.6 | 0.00 | 0.00 | 0.00 | 53 | 1009.0 |
| 20260503021032 | 13 | 0 | 0.0 | 1.6 | 0.00 | 0.00 | 0.00 | 52 | 1009.0 |
| 20260503020532 | 13 | 0 | 0.0 | 3.2 | 0.00 | 0.00 | 0.00 | 51 | 1009.0 |
| 20260503020043 | 13 | 248 | 1.6 | 4.8 | 0.00 | 0.00 | 0.00 | 50 | 1009.0 |
| 20260503015533 | 13 | 221 | 1.6 | 6.4 | 0.00 | 0.00 | 0.00 | 52 | 1008.9 |
| 20260503015033 | 13 | 236 | 1.6 | 6.4 | 0.00 | 0.00 | 0.00 | 51 | 1008.9 |
| 20260503014546 | 13 | 220 | 0.0 | 4.8 | 0.00 | 0.00 | 0.00 | 51 | 1008.9 |
| 20260503014033 | 13 | 0 | 0.0 | 1.6 | 0.00 | 0.00 | 0.00 | 52 | 1009.0 |
| 20260503013533 | 13 | 0 | 0.0 | 1.6 | 0.00 | 0.00 | 0.00 | 51 | 1009.0 |
| 20260503013045 | 13 | 0 | 0.0 | 1.6 | 0.00 | 0.00 | 0.00 | 53 | 1009.2 |
| 20260503012532 | 13 | 0 | 0.0 | 1.6 | 0.00 | 0.00 | 0.00 | 52 | 1009.1 |